This demonstration page uses our WeatherBlox Daily Observations layout. Learn more.

Left ArrowRight Arrow

34.02893, -84.19858

Hourly Observations for July 7, 2018

Temp ( °F °C ) Dew Point ( °F °C ) Humidity (%) Winds ( mph kmh ) Pressure ( in mb ) Visibility ( mi km ) Precip ( " mm )
12:53 am 00:53 Clear 72 22.2 70 21.1 94 94 Calm 30.05 1018 10 16 0.00 0.00
1:53 am 01:53 Clear 71 21.7 70 21.1 96 96 Calm 30.04 1017 8 13 0.00 0.00
2:53 am 02:53 Mostly Clear 72 22.2 70 21.1 94 94 Calm 30.05 1018 10 16 0.00 0.00
3:18 am 03:18 Mostly Cloudy 72 22.2 70 21.1 94 94 SE 6 9 30.09 1019 10 16 0.00 0.00
3:53 am 03:53 Mostly Clear 72 22.2 70 21.1 94 94 E 3 6 30.05 1018 10 16 0.00 0.00
4:53 am 04:53 Clear 71 21.7 70 21.1 96 96 NNE 6 9 30.04 1017 10 16 0.00 0.00
5:53 am 05:53 Clear 72 22.2 69 20.6 91 91 NNE 5 7 30.06 1018 10 16 0.00 0.00
6:53 am 06:53 Mostly Sunny 71 21.7 70 21.1 96 96 Calm 30.08 1019 10 16 0.00 0.00
7:53 am 07:53 Mostly Cloudy 71 21.7 70 21.1 96 96 SSW 6 9 30.10 1019 10 16 0.00 0.00
8:53 am 08:53 Cloudy 73 22.8 71 21.7 94 94 Calm 30.12 1020 10 16 0.00 0.00
9:53 am 09:53 Partly Cloudy 76 24.4 70 21.1 82 82 ESE 8 13 30.15 1021 10 16 0.00 0.00
10:53 am 10:53 Partly Cloudy 79 26.1 69 20.6 72 72 VRB 6 9 30.12 1020 10 16 0.00 0.00
11:15 am 11:15 Mostly Cloudy 80 26.7 70 21.1 71 71 ENE 6 9 30.12 1020 10 16 0.00 0.00
11:22 am 11:22 Partly Cloudy 81 27.2 70 21.1 69 69 VRB 5 7 30.12 1020 10 16 0.00 0.00
11:53 am 11:53 Partly Cloudy 80 26.7 69 20.6 69 69 VRB 7 11 30.12 1020 10 16 0.00 0.00
12:00 pm 12:00 Mostly Cloudy 80 26.7 69 20.6 69 69 VRB 5 7 30.12 1020 10 16 0.00 0.00
12:53 pm 12:53 Mostly Cloudy 81 27.2 69 20.6 67 67 ENE 7 11 30.12 1020 10 16 0.00 0.00
1:53 pm 13:53 Mostly Cloudy 83 28.3 70 21.1 65 65 NNE 6 9 30.10 1019 10 16 0.00 0.00
2:53 pm 14:53 Mostly Cloudy 83 28.3 70 21.1 65 65 VRB 5 7 30.07 1018 10 16 0.00 0.00
3:53 pm 15:53 Mostly Cloudy 80 26.7 72 22.2 76 76 VRB 5 7 30.07 1018 10 16 0.02 0.51
4:24 pm 16:24 Mostly Cloudy with Nearby Thunderstorms 78 25.6 73 22.8 85 85 VRB 3 6 30.06 1018 10 16 0.00 0.03
4:39 pm 16:39 Partly Cloudy 80 26.7 73 22.8 79 79 VRB 3 6 30.06 1018 10 16 0.00 0.03
4:53 pm 16:53 Mostly Sunny 81 27.2 73 22.8 77 77 Calm 30.06 1018 10 16 0.00 0.03
5:53 pm 17:53 Sunny 83 28.3 70 21.1 65 65 E 9 15 30.04 1017 10 16 0.00 0.00
6:53 pm 18:53 Partly Cloudy 80 26.7 69 20.6 69 69 VRB 7 11 30.06 1018 10 16 0.00 0.00
7:53 pm 19:53 Mostly Cloudy 76 24.4 69 20.6 79 79 ENE 8 13 30.10 1019 10 16 0.00 0.00
8:06 pm 20:06 Mostly Cloudy 76 24.4 69 20.6 79 79 ENE 8 13 30.12 1020 10 16 0.00 0.00
8:53 pm 20:53 Cloudy 74 23.3 68 20 82 82 VRB 3 6 30.11 1020 10 16 0.00 0.00
9:53 pm 21:53 Cloudy 74 23.3 68 20 82 82 VRB 5 7 30.13 1020 10 16 0.00 0.00
10:53 pm 22:53 Cloudy 73 22.8 68 20 84 84 VRB 5 7 30.16 1021 10 16 0.00 0.00
11:21 pm 23:21 Cloudy 73 22.8 68 20 84 84 E 8 13 30.18 1022 10 16 0.00 0.00
11:45 pm 23:45 Cloudy 73 22.8 68 20 84 84 VRB 5 7 30.18 1022 10 16 0.00 0.00
11:53 pm 23:53 Cloudy 73 22.8 68 20 84 84 VRB 5 7 30.16 1022 10 16 0.00 0.00

Powered by AerisWeather